Retour au catalogue

ONEWEB-0208

ActifCommunicationsPO
NORAD 48243·PAYLOAD·🇬🇧 United Kingdom

Lancé Apr 25, 2021 depuis Vostochny Cosmodrome

Loading…

Prochains Passages (prochaines 24 heures)

TLE

FraisSource: CelesTrak SupGP

Époque: Sep 14, 2026, 20:00 UTC

1 48243C 21031AK  26257.83348796  .00001191  00000+0  32153-2 0  2572
2 48243  87.8889 271.8277 0001642  88.2495 307.1802 13.14496693    12

Suivez ONEWEB-0208 en temps réel avec AllMySat

Download on the App Store